Home > Weather > Vincennes > Past weeks

Flag for U.S.A. Weather for the Past 2 Weeks in Vincennes, Indiana, U.S.A.

Now
17 °F

Sunny.


Feels Like: 4 °F
Forecast: 9 / 20 °F
Wind: 12 mph from North

Location: Lawrenceville-Vincennes International Airport

Current Time: Feb 13, 2016 at 1:14:46 PM

Latest Report: Feb 13, 2016 at 11:53 AM


Visibility: 10 mi

Pressure: 30.67 "Hg

Humidity: 39%

Dew point: -4 °F

Location of VincennesLocation

Historic Weather in Vincennes — Graph

°F

Vincennes Temperature Yesterday

Maximum temperature yesterday: 31 °F (at 2:53 PM)
Minimum temperature yesterday: 20 °F (at 11:53 PM)
Average temperature yesterday: 25 °F

High & Low Weather Summary for the Past Weeks

 TemperatureHumidityPressure
High65 °F (Feb 2, 3:53 PM)97% (Feb 2, 11:53 AM)30.67 "Hg (Feb 2, 11:53 AM)
Low11 °F (Feb 13, 6:53 AM)34% (Feb 7, 3:53 PM)29.51 "Hg (Feb 2, 10:53 PM)
Average34 °F71%30.06 "Hg
* Reported Jan 29 11:53 AM — Feb 13 11:53 AM, Vincennes, Weather by CustomWeather, © 2016

Note: Actual official high and low records may vary slightly from our data, if they occured in-between our weather recording intervals... More about our weather records

Advertising

Vincennes Weather History for the Previous 24 Hours

 ConditionsComfort  
Time TempWeatherWind HumidityBarometerVisibility
11:53 AM
Sat, Feb 13
17 °FSunny.12 mph39%30.67 "Hg10 mi
10:53 AM16 °FSunny.10 mph45%30.67 "Hg10 mi
9:53 AM14 °FSunny.9 mph49%30.67 "Hg10 mi
8:53 AM12 °FSunny.13 mph53%30.66 "Hg10 mi
7:53 AM11 °FSunny.9 mph61%30.64 "Hg10 mi
6:53 AM11 °FClear.10 mph64%30.62 "Hg10 mi
5:53 AM13 °FClear.10 mph64%30.59 "Hg10 mi
4:53 AM13 °FClear.13 mph64%30.57 "Hg10 mi
3:53 AM14 °FClear.20 mph64%30.55 "Hg10 mi
2:53 AM15 °FClear.17 mph61%30.54 "Hg10 mi
1:53 AM16 °FClear.14 mph62%30.51 "Hg10 mi
12:53 AM18 °FClear.16 mph57%30.49 "Hg10 mi
11:53 PM
Fri, Feb 12
20 °FClear.17 mph50%30.47 "Hg10 mi
10:53 PM22 °FClear.17 mph48%30.44 "Hg10 mi
9:53 PM24 °FClear.20 mph60%30.40 "Hg10 mi
8:53 PM24 °FPassing clouds.14 mph65%30.39 "Hg10 mi
7:53 PM25 °FPassing clouds.14 mph63%30.37 "Hg10 mi
6:53 PM27 °FOvercast.23 mph61%30.34 "Hg10 mi
5:53 PM28 °FOvercast.17 mph64%30.30 "Hg10 mi
4:53 PM29 °FOvercast.24 mph64%30.28 "Hg10 mi
3:53 PM30 °FOvercast.20 mph69%30.26 "Hg10 mi
2:53 PM31 °FMostly cloudy.17 mph67%30.24 "Hg10 mi
1:53 PM29 °FOvercast.17 mph72%30.24 "Hg10 mi
Weather by CustomWeather, © 2016

See weather overviewHow to use our weather pages